Temp
67 63 60 66 67 66 63 60 59 64 65 60 62 63 66 69 66 65 66 68 68 68 71 72 72 72 71 69 70 72 72 75 72 68 74 71 72 71 65 67 69 69 67 68
62 59 68 66 64 61 61 59 60 63 63 61 63 61 67 65 65 63 64 66 65 65 66 67 68 70 70 69 70 71 71 72 69 71 75 74 73 69 69 65 66 69 67 67
61 64 64 62 60 58 60 59 60 58 61 63 59 59 59 61 62 62 65 65 65 62 61 61 66 68 68 66 67 67 67 69 69 72 73 69 64 61 60 61 63 67 66 63
63 69 61 60 60 62 57 63 60 57 55 53 59 53 58 61 60 60 63 63 63 58 58 60 59 60 61 63 67 68 67 67 72 71 73 67 62 59 59 58 59 61 64 62
61 60 58 57 61 63 59 60 58 57 55 54 55 51 60 59 58 60 61 61 61 58 58 59 60 60 61 63 65 67 69 67 70 70 71 67 60 59 58 58 58 59 59 59
65 65 63 64 61 64 61 58 56 55 55 47 55 52 59 58 59 58 61 61 59 59 58 60 62 62 60 62 63 64 63 62 65 65 65 63 60 58 57 58 57 58 59 58
60 60 64 64 58 60 60 56 47 45 43 48 51 48 57 60 58 58 58 60 59 58 57 57 59 60 62 61 62 62 62 60 61 61 62 61 60 59 58 59 57 56 56 57
54 50 59 64 63 59 57 58 46 35 42 46 47 44 57 61 61 59 58 60 58 56 55 56 56 61 60 60 61 63 62 62 62 60 58 59 58 57 57 57 57 56 56 55
54 54 60 61 63 65 54 51 58 46 45 44 49 55 55 56 57 57 58 58 58 56 54 54 56 56 59 59 61 61 60 60 60 60 59 58 58 58 57 56 57 55 55 54
62 52 57 56 62 58 59 61 49 51 36 41 51 51 58 51 56 57 57 59 59 59 53 54 53 55 57 57 58 59 60 59 59 59 59 59 60 59 57 56 55 55 54 54
64 59 52 56 55 56 53 54 54 55 52 49 50 55 65 62 61 59 60 59 60 60 56 53 52 53 55 55 55 55 57 57 56 57 57 58 60 60 59 58 57 56 55 54
64 61 52 53 58 61 63 60 59 52 48 51 51 55 63 66 64 63 61 60 61 60 55 54 52 52 52 53 53 54 54 55 55 56 57 56 56 57 56 55 56 57 55 57
59 57 49 48 53 55 54 57 59 58 55 51 50 56 62 63 62 63 60 60 61 60 54 52 52 52 53 54 54 54 55 54 55 55 54 55 54 53 53 55 56 58 58 57
62 58 57 52 57 59 51 55 57 57 52 55 54 58 55 57 58 59 60 61 62 60 59 53 51 53 54 55 56 55 55 55 56 57 55 53 53 53 54 54 55 57 58 58
60 54 57 58 56 56 56 54 53 54 58 54 60 57 63 61 60 61 61 60 60 58 58 54 54 54 57 55 55 56 55 56 58 57 52 50 51 51 52 52 53 53 53 53
56 55 54 53 54 55 52 55 55 56 58 58 58 56 68 71 67 63 61 59 57 59 60 59 57 59 61 62 59 54 54 54 57 54 51 52 53 56 57 58 58 57 56 56
54 53 50 49 53 50 48 54 54 56 59 60 53 61 66 61 62 62 61 60 59 61 61 60 60 60 62 62 62 60 61 62 62 59 58 59 59 58 58 59 58 57 57 58
50 52 51 50 48 40 59 61 63 58 60 61 62 64 63 66 66 67 66 63 62 62 62 62 63 61 60 60 62 62 62 61 60 59 59 59 59 57 58 58 57 58 58 56
51 53 49 45 44 55 53 53 55 54 57 63 60 64 65 63 64 63 68 67 66 65 66 66 66 63 59 57 62 61 60 61 60 59 59 59 58 57 57 56 56 57 56 56
49 51 51 46 42 40 59 62 64 63 55 71 65 64 63 61 59 67 67 67 68 67 67 66 66 65 61 59 61 60 59 59 59 60 59 59 59 57 56 55 54 56 56 54
41 45 44 48 46 53 59 58 64 53 61 68 68 67 63 61 70 73 69 67 68 67 66 67 65 64 64 62 61 59 59 59 61 60 59 58 58 57 56 55 55 54 54 53
43 43 44 50 45 43 57 55 58 69 63 63 64 65 62 66 64 64 67 65 64 63 64 64 62 62 64 62 60 60 58 62 60 59 57 57 57 56 55 54 54 54 53 52
42 53 52 53 53 59 59 64 65 62 65 61 63 62 64 63 64 62 62 63 63 63 62 63 62 62 62 61 61 60 60 61 58 57 56 56 56 55 55 54 52 52 52 51
52 54 53 53 59 56 56 60 61 63 65 64 63 62 64 64 65 62 62 62 62 62 61 61 61 60 58 60 61 63 62 59 58 57 57 56 55 54 55 55 54 52 51 50
57 55 55 56 58 57 56 59 62 63 63 62 62 62 63 66 64 63 61 62 63 61 61 61 61 60 59 59 60 63 61 59 58 58 57 56 55 54 54 54 53 52 54 52
59 56 54 54 66 64 66 62 62 62 62 64 61 60 63 66 64 65 63 64 63 61 60 59 60 60 61 60 60 61 59 59 59 58 56 55 55 54 53 51 48 46 48 47
MSLP
1012.45 1012.16 1011.28 1011.10 1011.32 1011.29 1011.36 1011.18 1010.81 1010.75 1011.25 1011.50 1010.49 1010.17 1010.19 1010.56 1011.22 1011.55 1011.87 1011.94 1011.97 1011.89 1011.85 1011.78 1011.55 1011.47 1011.49 1011.65 1011.57 1011.32 1011.48 1011.69 1012.12 1012.81 1012.60 1012.72 1013.06 1013.26 1013.71 1013.86 1014.03 1014.76 1015.47 1016.62
1012.18 1011.30 1010.88 1011.44 1011.74 1011.76 1011.51 1011.13 1010.78 1010.85 1011.31 1011.52 1010.37 1009.93 1009.82 1010.62 1011.08 1011.88 1012.17 1012.16 1012.34 1012.33 1012.13 1011.97 1011.45 1011.12 1011.00 1011.04 1010.98 1010.89 1010.96 1011.34 1011.99 1012.47 1012.50 1012.83 1013.03 1013.51 1013.74 1014.12 1014.65 1015.00 1015.75 1016.39
1010.70 1010.64 1011.18 1011.42 1011.69 1011.69 1011.33 1011.08 1010.89 1011.18 1011.31 1011.24 1010.84 1009.39 1009.91 1010.87 1011.50 1012.16 1012.25 1012.64 1012.75 1012.97 1012.74 1012.22 1011.59 1011.03 1010.93 1010.85 1010.79 1010.70 1010.98 1011.31 1011.91 1012.21 1012.49 1013.24 1013.73 1014.15 1014.41 1014.51 1014.64 1015.05 1016.19 1016.45
1010.74 1010.33 1011.17 1011.30 1011.13 1011.46 1010.98 1011.28 1011.53 1011.54 1011.55 1010.44 1011.02 1009.06 1009.27 1010.13 1010.92 1011.77 1012.11 1012.56 1012.96 1013.53 1013.31 1012.75 1012.36 1011.95 1011.58 1011.31 1010.83 1010.74 1011.10 1011.35 1011.53 1012.05 1012.30 1013.10 1013.71 1013.95 1014.47 1014.79 1015.05 1015.75 1016.51 1016.83
1009.83 1010.37 1010.77 1010.85 1010.62 1011.25 1011.11 1011.86 1011.84 1011.78 1011.45 1011.11 1010.35 1010.18 1008.46 1010.02 1010.36 1011.17 1012.09 1012.73 1013.34 1013.77 1013.72 1013.29 1012.90 1012.41 1012.12 1011.69 1011.47 1011.35 1011.21 1011.51 1011.69 1012.02 1012.18 1013.03 1013.54 1014.16 1014.55 1014.62 1015.56 1016.23 1016.95 1017.40
1009.65 1010.65 1010.59 1010.40 1011.18 1011.26 1011.88 1012.13 1012.24 1012.11 1011.61 1010.60 1009.58 1009.95 1008.01 1009.11 1009.97 1011.25 1012.10 1012.67 1013.55 1013.92 1014.10 1013.80 1013.38 1012.94 1012.60 1012.36 1012.20 1012.01 1011.93 1012.21 1012.26 1012.39 1012.89 1013.49 1013.87 1014.20 1014.91 1015.44 1016.11 1016.56 1017.31 1017.75
1009.37 1009.70 1010.31 1010.59 1011.02 1011.75 1011.64 1011.72 1011.37 1011.27 1011.15 1009.80 1010.48 1010.25 1008.40 1009.37 1010.54 1011.37 1012.17 1012.74 1013.68 1014.16 1014.45 1014.40 1014.01 1013.53 1013.27 1012.99 1012.80 1012.79 1012.82 1012.94 1012.93 1012.81 1013.25 1013.59 1014.17 1014.69 1014.87 1015.77 1016.12 1017.00 1017.72 1018.08
1008.10 1008.56 1009.41 1009.72 1009.58 1010.08 1010.76 1010.95 1010.84 1010.57 1010.23 1010.11 1010.84 1009.45 1008.58 1009.68 1010.75 1011.75 1012.57 1013.07 1013.77 1014.26 1014.75 1014.91 1014.78 1014.28 1013.97 1013.66 1013.51 1013.58 1013.66 1013.71 1013.64 1013.98 1014.27 1014.51 1014.76 1015.01 1015.56 1016.28 1016.73 1017.28 1017.89 1018.49
1007.32 1007.68 1009.07 1009.75 1009.78 1009.91 1010.83 1010.90 1011.02 1010.90 1011.08 1010.13 1008.85 1008.51 1009.39 1010.05 1010.72 1011.61 1012.21 1012.91 1013.50 1014.27 1014.87 1015.26 1015.37 1015.19 1014.79 1014.48 1014.33 1014.37 1014.37 1014.48 1014.56 1014.66 1014.76 1015.11 1015.47 1015.77 1015.93 1016.54 1017.07 1017.97 1018.31 1018.91
1006.59 1007.50 1008.78 1010.02 1010.14 1010.40 1009.84 1010.04 1010.75 1010.45 1009.78 1008.17 1007.13 1007.19 1006.71 1008.83 1009.61 1010.76 1011.66 1012.34 1013.18 1014.06 1014.97 1015.41 1015.73 1015.75 1015.62 1015.54 1015.37 1015.22 1015.19 1015.33 1015.38 1015.34 1015.46 1015.76 1015.81 1016.36 1016.60 1017.23 1017.73 1017.83 1018.48 1018.99
1006.29 1006.93 1008.85 1009.50 1009.15 1008.46 1009.77 1009.42 1009.47 1009.23 1008.61 1007.19 1006.08 1005.52 1005.98 1007.09 1008.47 1009.69 1010.88 1011.95 1012.83 1013.71 1014.75 1015.44 1015.87 1016.09 1016.12 1016.20 1016.19 1016.16 1016.06 1016.00 1016.00 1016.03 1016.15 1016.31 1016.55 1016.94 1016.97 1017.72 1018.10 1018.61 1019.08 1019.29
1005.65 1005.94 1006.80 1007.74 1008.61 1008.63 1007.87 1007.72 1007.93 1007.48 1007.59 1007.26 1006.75 1005.69 1006.39 1007.04 1008.18 1009.28 1010.49 1011.71 1012.63 1013.57 1014.68 1015.29 1015.80 1016.17 1016.41 1016.60 1016.71 1016.71 1016.74 1016.76 1016.89 1017.00 1016.73 1016.99 1017.41 1017.69 1018.13 1018.73 1019.04 1019.45 1019.84 1019.70
1005.92 1005.48 1005.95 1007.38 1008.37 1008.65 1007.73 1007.39 1007.32 1007.26 1007.14 1006.17 1005.70 1005.18 1006.58 1007.50 1008.29 1009.21 1010.22 1011.38 1012.36 1013.43 1014.69 1015.39 1015.82 1016.18 1016.48 1016.73 1016.95 1017.17 1017.28 1017.33 1017.34 1017.43 1017.67 1017.83 1018.38 1018.57 1019.06 1019.38 1019.64 1019.95 1020.29 1020.12
1005.25 1004.57 1003.67 1003.57 1004.19 1005.12 1006.21 1006.08 1006.60 1006.48 1005.74 1004.87 1004.55 1004.76 1006.26 1007.10 1007.93 1008.93 1009.95 1010.94 1011.92 1013.02 1014.10 1015.11 1015.74 1016.13 1016.48 1016.75 1016.90 1017.19 1017.56 1017.77 1017.90 1017.96 1018.17 1018.48 1018.95 1019.35 1019.81 1019.96 1020.03 1020.37 1020.59 1020.98
1005.48 1004.25 1004.05 1003.99 1004.41 1004.71 1004.83 1005.06 1005.65 1005.40 1004.69 1004.42 1003.37 1003.88 1004.21 1005.66 1006.77 1007.95 1009.25 1010.58 1011.46 1012.50 1013.61 1014.67 1015.24 1015.81 1016.12 1016.62 1017.01 1017.31 1017.60 1017.86 1018.06 1018.40 1018.82 1019.12 1019.32 1019.75 1020.45 1020.67 1020.77 1021.18 1021.20 1021.70
1005.91 1004.33 1004.14 1004.08 1004.41 1004.59 1004.53 1004.63 1004.77 1004.73 1004.48 1004.04 1003.85 1003.56 1003.88 1004.35 1006.17 1007.55 1008.66 1009.85 1010.82 1011.64 1012.66 1013.73 1014.60 1015.15 1015.43 1015.93 1016.51 1017.32 1017.72 1018.02 1018.32 1018.68 1019.21 1019.83 1020.29 1020.93 1021.10 1020.90 1021.13 1021.38 1021.79 1022.13
1006.37 1005.07 1004.27 1003.57 1004.25 1004.69 1003.95 1003.16 1003.66 1003.69 1003.42 1003.15 1003.32 1002.56 1003.50 1004.57 1005.17 1006.24 1007.58 1008.81 1009.73 1010.49 1011.64 1012.69 1013.58 1014.42 1015.01 1015.58 1016.23 1016.85 1017.30 1017.62 1018.09 1018.92 1019.56 1020.01 1020.53 1021.00 1021.19 1021.14 1021.41 1021.85 1021.96 1022.13
1006.72 1005.35 1004.56 1003.43 1004.31 1003.22 1000.94 1001.33 1001.73 1002.05 1001.86 1002.42 1002.01 1002.36 1002.93 1003.34 1004.19 1005.27 1006.31 1007.34 1008.62 1009.67 1010.53 1011.78 1012.79 1013.90 1014.82 1015.57 1016.10 1016.73 1017.40 1017.84 1018.34 1018.91 1019.49 1019.98 1020.46 1020.80 1021.00 1021.31 1021.80 1022.01 1022.23 1022.83
1006.83 1005.37 1004.06 1003.38 1002.80 1001.17 1001.32 1001.52 1001.46 1001.49 1000.36 1000.80 1001.03 1001.92 1002.69 1003.57 1004.30 1004.88 1005.48 1006.63 1007.36 1008.47 1009.57 1010.63 1012.02 1013.38 1014.69 1015.49 1015.93 1016.60 1017.19 1017.69 1018.16 1018.63 1019.19 1019.78 1020.36 1020.78 1021.24 1021.62 1021.99 1022.43 1022.92 1023.49
1006.01 1005.02 1003.70 1003.09 1001.72 1000.20 999.61 999.82 1000.38 1000.92 999.45 998.68 999.54 1000.56 1001.97 1003.10 1003.03 1002.57 1004.53 1005.96 1007.07 1008.28 1009.22 1010.20 1011.42 1012.81 1014.13 1015.19 1015.94 1016.53 1016.90 1017.44 1017.91 1018.43 1019.05 1019.66 1020.11 1020.66 1021.26 1021.97 1022.59 1023.03 1023.49 1024.05
1004.87 1004.08 1002.65 1001.62 1000.74 999.69 999.49 999.91 1000.27 999.95 998.41 998.03 998.51 999.59 1001.08 1001.53 1001.11 1001.87 1003.65 1005.31 1006.51 1007.70 1008.87 1009.92 1011.08 1012.06 1013.23 1014.61 1015.57 1016.20 1016.76 1017.19 1017.90 1018.80 1019.44 1020.06 1020.63 1021.12 1021.67 1022.25 1022.87 1023.33 1023.72 1024.21
1002.09 1001.84 1001.25 1000.88 1000.34 999.77 999.58 1000.45 999.29 997.88 998.07 998.39 998.90 999.42 1000.21 1001.27 1002.03 1002.68 1003.58 1004.88 1006.18 1007.34 1008.54 1009.67 1010.83 1011.87 1012.95 1014.21 1015.01 1015.65 1016.41 1017.10 1018.11 1019.00 1019.72 1020.34 1020.87 1021.48 1022.03 1022.43 1022.96 1023.45 1023.92 1024.12
1000.99 999.23 999.29 999.27 998.45 998.58 998.63 998.24 998.33 998.52 998.39 998.76 999.15 999.89 1000.57 1001.38 1001.97 1002.89 1003.88 1005.02 1006.14 1007.22 1008.40 1009.60 1010.57 1011.69 1012.80 1013.81 1014.47 1014.96 1015.84 1016.74 1017.78 1018.65 1019.43 1020.22 1021.02 1021.82 1022.39 1022.80 1023.25 1023.56 1023.91 1024.04
1000.01 999.81 998.89 999.03 998.21 998.22 998.52 998.57 998.63 998.73 998.80 998.97 999.37 1000.04 1000.51 1001.03 1001.73 1002.75 1003.92 1005.02 1006.12 1007.29 1008.31 1009.42 1010.43 1011.32 1012.31 1013.33 1014.11 1014.58 1015.55 1016.72 1017.55 1018.33 1019.14 1019.84 1020.41 1021.16 1021.88 1022.39 1022.89 1023.25 1023.51 1023.77
997.61 998.87 997.89 997.47 997.51 997.92 998.21 998.22 998.13 998.56 998.95 999.23 999.65 1000.08 1000.43 1000.81 1001.60 1002.31 1003.61 1004.65 1005.80 1006.97 1008.25 1009.08 1009.76 1010.55 1011.61 1012.75 1013.67 1014.37 1015.39 1016.39 1017.06 1017.86 1018.66 1019.48 1020.20 1020.86 1021.24 1021.84 1022.44 1022.85 1023.17 1023.46
996.78 996.69 996.51 995.75 996.25 996.54 996.60 997.21 997.73 998.09 998.42 998.99 999.42 1000.11 1000.60 1000.80 1001.23 1002.11 1003.16 1004.17 1005.28 1006.47 1007.65 1008.67 1009.43 1010.36 1011.12 1012.15 1013.15 1014.09 1015.22 1015.92 1016.46 1017.15 1017.97 1018.66 1019.37 1020.22 1021.00 1021.74 1022.68 1023.66 1023.65 1023.97
Wind_Speed
5 8 11 12 11 8 7 8 10 8 4 8 12 12 10 7 9 9 8 10 13 15 17 15 13 13 11 10 12 12 11 13 9 7 7 5 6 5 4 7 12 12 10 10
6 14 13 4 5 9 9 11 12 8 4 7 10 14 11 6 7 3 7 11 13 16 16 15 12 8 7 8 9 9 9 14 9 8 6 4 5 4 7 5 9 11 12 11
15 2 3 10 9 12 12 13 10 10 3 11 11 15 6 4 5 3 5 7 10 12 14 14 11 6 4 2 2 5 8 11 10 11 6 4 6 4 2 5 6 9 10 10
12 13 11 9 12 13 12 7 9 7 6 6 2 4 8 7 7 3 5 7 8 12 13 11 8 7 6 6 6 8 11 11 10 11 8 8 4 3 2 5 6 6 9 9
4 9 9 12 15 13 4 4 4 5 9 8 8 7 6 5 8 3 3 5 8 10 11 11 9 8 9 9 8 7 8 6 6 10 8 5 6 4 3 7 9 7 7 8
10 1 5 3 4 9 11 5 2 3 4 7 3 6 5 6 3 2 1 3 6 8 9 9 8 9 10 10 9 9 10 8 6 5 6 6 8 8 6 8 7 6 6 6
13 14 5 7 8 7 9 6 3 5 5 2 4 5 7 5 5 3 2 4 6 7 8 9 8 9 10 10 10 9 9 9 8 8 7 8 7 7 6 6 6 7 4 4
14 8 18 14 13 9 14 10 5 5 4 1 2 7 1 4 6 5 3 2 5 6 6 8 10 7 8 9 9 10 10 10 9 8 8 8 8 6 7 7 6 6 5 5
9 7 6 6 6 10 8 10 2 1 1 4 6 6 5 6 8 7 7 6 6 4 5 5 7 8 8 8 8 10 10 10 9 8 7 8 7 7 8 9 9 7 8 7
7 5 6 5 5 4 7 12 6 5 4 6 6 5 4 12 14 11 10 10 7 6 4 3 4 5 6 7 8 8 9 9 9 9 7 6 9 9 10 8 10 11 9 10
11 6 7 8 12 15 8 7 4 4 5 4 3 3 0 13 13 14 12 10 9 6 6 5 3 3 4 6 7 7 8 8 8 9 10 9 8 9 10 8 9 10 9 9
20 10 9 13 2 7 14 13 16 7 7 4 5 1 5 10 12 12 12 11 9 5 5 5 4 4 5 5 6 6 6 8 8 7 11 12 11 10 10 8 8 10 10 11
14 11 9 6 6 5 11 15 15 7 2 9 5 4 7 9 11 12 14 13 11 9 7 5 5 5 6 6 7 7 7 7 7 8 10 11 11 10 10 9 7 7 9 11
17 8 19 12 3 10 12 20 20 17 10 7 11 5 13 14 15 14 15 14 13 10 10 8 7 6 7 7 7 7 8 8 8 10 10 11 10 10 10 10 9 9 10 10
14 14 16 8 5 9 8 18 22 22 20 11 2 15 12 19 19 19 17 16 15 12 12 11 10 8 8 8 7 7 6 6 8 10 10 9 9 9 8 9 10 10 11 11
5 8 13 15 8 9 5 11 20 23 22 20 15 14 5 11 16 18 18 18 18 16 15 14 12 12 12 12 10 8 8 7 9 10 10 9 9 10 10 11 11 12 12 12
11 8 9 15 12 6 12 19 19 14 16 22 17 15 8 11 18 22 21 21 21 21 18 15 14 13 12 11 11 11 10 10 11 12 11 11 10 10 11 12 12 12 12 12
14 15 5 6 11 12 5 5 21 25 18 23 16 12 15 14 18 19 22 24 23 22 21 18 14 12 10 10 11 12 12 12 13 13 12 11 11 11 11 11 11 11 11 11
20 15 10 8 12 5 6 7 12 17 17 23 25 18 13 7 11 11 20 22 24 24 21 20 17 14 12 11 11 12 12 12 13 14 14 13 13 12 12 11 11 9 9 8
13 14 14 6 10 13 9 11 11 8 12 12 25 22 18 14 11 10 21 22 21 21 19 19 20 17 15 14 13 13 13 13 12 12 12 11 12 11 11 11 10 9 8 9
9 10 17 16 10 6 3 11 15 12 5 5 19 19 21 19 11 5 21 20 21 20 22 20 20 18 19 17 16 15 14 14 13 12 12 11 11 11 11 11 9 9 9 9
15 13 12 17 15 14 9 10 13 7 2 5 11 17 20 13 10 11 18 21 22 23 22 22 19 18 18 17 17 16 16 14 13 13 13 12 12 9 9 11 10 10 10 10
10 10 12 13 12 3 21 5 7 1 2 5 11 13 17 15 12 14 16 20 21 22 20 19 18 18 17 18 17 18 16 16 16 15 14 12 11 10 9 9 9 8 8 7
17 5 7 7 13 8 14 7 3 4 2 3 7 14 16 17 14 13 16 17 18 18 19 18 18 19 18 18 18 16 17 16 16 15 14 13 13 13 11 9 9 8 8 8
13 15 13 9 5 3 5 12 7 8 3 4 8 13 17 16 14 16 16 17 17 17 17 18 18 18 18 18 18 16 17 17 16 15 14 13 11 13 12 10 9 8 8 7
13 14 15 11 10 11 9 13 12 9 12 8 11 11 14 14 15 15 15 16 17 18 17 17 17 16 18 18 18 17 16 18 18 16 13 12 11 11 10 9 7 1 1 8
Wind_Direction
185 225 224 231 231 291 273 264 269 272 273 279 265 271 269 280 232 245 273 310 323 324 321 319 302 286 273 262 250 238 225 210 187 180 189 182 184 190 175 150 152 141 134 157
195 238 247 258 229 224 235 256 267 279 253 248 287 278 291 255 229 240 318 334 338 329 331 333 324 301 271 262 249 234 221 199 177 193 186 169 177 187 163 154 152 151 144 148
233 219 91 196 207 221 232 248 268 280 297 247 283 260 215 184 193 224 338 345 344 351 338 337 339 348 302 309 202 150 163 175 172 196 159 118 92 98 88 128 127 150 141 137
244 247 220 222 230 219 247 231 254 259 265 290 274 303 201 186 202 233 346 8 11 2 348 359 16 29 42 53 106 123 149 171 183 192 183 160 137 151 121 118 105 106 136 133
193 188 192 223 227 197 258 155 215 257 264 294 208 248 117 183 228 231 354 25 29 11 352 11 23 48 57 55 64 88 108 117 183 184 196 162 108 92 110 101 111 114 113 123
257 149 206 224 126 193 136 151 192 234 260 247 171 253 182 187 199 147 158 75 44 22 6 10 35 50 55 55 58 60 72 76 104 119 121 122 148 143 141 137 136 130 136 131
209 217 179 167 144 148 185 195 237 221 204 299 121 235 283 163 155 148 140 106 69 34 17 360 30 50 54 58 60 64 63 64 68 83 105 123 139 140 133 131 120 125 117 135
210 205 195 182 210 195 194 215 220 257 223 138 186 235 139 158 153 169 171 132 98 64 30 16 3 35 53 59 61 71 70 67 74 81 83 96 108 115 110 103 108 108 113 115
210 216 146 197 162 185 161 210 0 267 180 260 198 220 190 183 189 197 188 191 147 108 62 23 9 14 29 41 59 73 70 67 67 81 90 94 103 105 108 105 118 119 105 96
177 199 184 133 159 91 238 137 173 200 231 242 189 245 210 192 202 194 191 191 170 139 106 59 29 12 33 40 40 51 64 67 68 74 77 96 103 108 109 108 114 108 111 112
180 235 139 159 214 183 161 194 211 282 253 290 283 156 43 177 187 188 186 180 181 165 148 128 106 53 48 63 58 56 58 65 63 70 74 76 94 111 112 122 123 119 115 113
201 214 196 198 89 283 226 218 206 227 190 242 310 240 168 150 167 177 172 173 176 170 143 127 117 107 85 76 80 80 73 70 71 80 92 80 69 71 77 82 101 121 124 122
170 206 180 181 189 188 217 203 214 226 247 214 238 122 163 157 166 174 171 175 176 165 154 141 134 132 118 112 103 102 95 88 83 84 86 90 93 81 77 86 90 105 110 107
181 189 214 214 196 154 200 201 200 205 220 210 231 148 179 186 182 176 178 176 177 175 158 153 148 149 133 122 115 107 103 107 110 101 91 82 84 91 95 89 90 105 104 107
197 223 211 218 160 182 207 193 194 209 217 216 240 218 184 190 191 187 178 174 177 180 171 167 161 162 146 136 122 115 106 109 111 108 101 87 78 79 90 93 99 103 95 95
225 222 199 213 184 198 207 198 200 217 223 236 250 262 237 192 180 178 182 177 182 184 184 176 170 169 164 156 145 133 131 129 125 107 102 107 115 133 130 120 114 107 111 110
248 207 180 217 192 175 249 210 197 205 220 223 225 234 173 176 181 184 182 184 186 184 183 184 179 178 168 159 150 152 145 138 132 130 131 135 135 133 128 119 115 116 110 105
254 222 229 167 148 216 229 145 200 206 214 212 237 222 192 191 192 190 187 183 186 186 182 183 178 178 167 156 156 143 147 144 143 141 143 142 136 127 124 122 119 113 106 106
231 227 212 194 215 276 164 168 171 186 240 220 225 214 204 159 149 195 190 190 186 185 183 180 177 169 162 164 156 154 154 154 154 151 148 146 144 138 134 127 120 118 120 121
216 247 227 177 215 222 203 175 160 168 259 210 207 207 188 163 202 194 183 188 185 184 180 177 176 167 167 167 166 167 166 166 165 158 150 147 145 140 139 138 139 139 140 138
189 209 212 213 231 223 174 149 155 191 222 187 194 192 178 192 203 144 168 177 179 178 177 173 175 177 178 168 171 178 174 178 165 159 154 155 156 157 153 151 151 154 148 148
183 181 203 221 217 240 139 135 195 204 100 148 177 179 185 180 136 136 164 166 169 173 173 172 174 179 175 174 177 181 182 172 162 162 163 165 163 158 159 158 157 161 162 161
219 197 199 205 206 70 176 180 194 285 194 175 175 181 180 164 161 147 160 164 170 170 170 173 175 173 175 179 185 184 181 170 168 169 169 167 163 162 165 166 167 168 175 174
224 226 227 175 207 207 202 219 212 197 236 163 175 175 176 174 156 151 157 162 166 166 168 169 171 175 178 181 188 189 174 171 172 174 172 170 172 170 174 179 179 179 184 184
197 188 213 233 238 226 236 225 208 199 201 156 152 173 181 166 159 152 158 162 165 163 166 173 178 181 180 179 186 185 175 176 177 178 176 176 181 185 181 183 184 190 193 190
198 203 202 216 209 206 215 201 199 187 198 191 167 170 188 176 159 157 158 164 163 167 168 179 183 180 180 181 183 183 178 182 181 182 181 184 182 182 181 179 168 198 185 182